Location: Grand Mazuras
(45.9128°N, 1.7636°E)
Time: 05:50:07
(UTC+00:00)

IRS-1A Rocket - Pass Details

Date: 18 April 2021
Orbit: 852 x 930 km, 99.2° (Epoch: 15 May)

Event Time Altitude Azimuth Distance (km) Brightness Sun altitude
Exits shadow 19:43:44 - 158° (SSE) 2,960 6.6 -10.4°
Reaches altitude 10° 19:44:54 10° 158° (SSE) 2,498 6.2 -10.6°
Maximum altitude 19:50:26 78° 73° (ENE) 899 4.3 -11.4°
Drops below altitude 10° 19:56:08 10° 348° (NNW) 2,563 7.3 -12.3°
Sets 19:58:34 0° 347° (NNW) 3,519 8.1 -12.7°
